Crosby, ND

10:12 PM CDT on March 22, 2017 (GMT -0500)
Crosby

Weather History for KD50 - December, 2013

Change the Weather History Date:

Tuesday, December 24, 2013

  Actual Average (KISN) Record (KISN)
Temperature  
Mean Temperature 21 °F -  
Max Temperature 32 °F 21 °F 45 °F (1957)
Min Temperature 10 °F 0 °F -34 °F (1980)
Degree Days  
Heating Degree Days 44    
Moisture  
Dew Point 24 °F    
Average Humidity 92    
Maximum Humidity 100    
Minimum Humidity 79    
Precipitation  
Precipitation 6.55 in - - ()
Sea Level Pressure  
Sea Level Pressure 29.91 in    
Wind  
Wind Speed 16 mph (West)    
Max Wind Speed 24 mph    
Max Gust Speed 33 mph    
Visibility 9 miles    
Events Rain , Snow    
Averages and records for this station are not official NWS values.
T = Trace of Precipitation, MM = Missing Value Source: NWS Daily Summary

Daily Weather History Graph

Daily Weather History Graph

Search for Another Location

Airport or City:

Trip Planner

Search our weather history database for the weather conditions in past years. The results will help you decide how hot, cold, wet, or windy it might be!

Date:

Astronomy

Dec. 24, 2013 Rise Set
Actual Time 8:45 AM CST 5:00 PM CST
Civil Twilight 8:08 AM CST 5:37 PM CST
Nautical Twilight 7:27 AM CST 6:18 PM CST
Astronomical Twilight 6:49 AM CST 6:56 PM CST
Moon No Moon Rise 12:07 PM CST (12/24)
Length of Visible Light 9h 29m
Length of Day
8h 14m
Waning Gibbous, 58% of the Moon is Illuminated
Dec 24
Waning Gibbous
Dec 25
Last Quarter
Jan 1
New
Jan 7
First Quarter
Jan 15
Full

Hourly Weather History & Observations

Time (CST) Temp. Windchill Dew Point Humidity Pressure Visibility Wind Dir Wind Speed Gust Speed Precip Events Conditions
12:15 AM 10.4 °F -8.6 °F 6.8 °F 85% 29.75 in - SSW 20.7 mph 25.3 mph N/A   Unknown
12:35 AM 12.2 °F -5.8 °F 8.6 °F 85% 29.77 in - SSW 19.6 mph 27.6 mph N/A   Unknown
12:55 AM 14.0 °F -0.8 °F 8.6 °F 79% 29.76 in 10.0 mi SSW 13.8 mph - N/A   Unknown
1:15 AM 14.0 °F 0.5 °F 10.4 °F 86% 29.76 in 10.0 mi SSW 11.5 mph 20.7 mph N/A   Unknown
1:35 AM 14.0 °F -1.4 °F 10.4 °F 86% 29.78 in 10.0 mi SW 15.0 mph - N/A   Unknown
1:55 AM 15.8 °F 0.3 °F 10.4 °F 79% 29.76 in 10.0 mi SSW 16.1 mph 23.0 mph N/A   Unknown
2:15 AM 15.8 °F 2.1 °F 12.2 °F 86% 29.76 in 10.0 mi SSW 12.7 mph - N/A   Unknown
2:35 AM 15.8 °F 1.4 °F 12.2 °F 86% 29.76 in 10.0 mi SSW 13.8 mph - N/A   Unknown
2:55 AM 15.8 °F 1.4 °F 10.4 °F 79% 29.77 in 10.0 mi SSW 13.8 mph 19.6 mph N/A   Unknown
3:15 AM 14.0 °F -0.2 °F 10.4 °F 86% 29.77 in 10.0 mi SSW 12.7 mph - N/A   Unknown
3:35 AM 14.0 °F 0.5 °F 10.4 °F 86% 29.79 in 10.0 mi SW 11.5 mph 18.4 mph N/A   Unknown
3:55 AM 15.8 °F 3.4 °F 12.2 °F 86% 29.80 in 10.0 mi SSW 10.4 mph - N/A   Unknown
4:15 AM 17.6 °F 5.7 °F 14.0 °F 86% 29.80 in 10.0 mi WSW 10.4 mph - N/A   Unknown
4:35 AM 19.4 °F 7.2 °F 17.6 °F 93% 29.81 in 10.0 mi WSW 11.5 mph - N/A   Unknown
4:55 AM 19.4 °F 4.5 °F 17.6 °F 93% 29.82 in 10.0 mi West 17.3 mph 21.9 mph N/A   Unknown
5:15 AM 19.4 °F 7.9 °F 17.6 °F 93% 29.82 in 10.0 mi West 10.4 mph - N/A   Unknown
5:35 AM 19.4 °F 6.6 °F 17.6 °F 93% 29.83 in 10.0 mi West 12.7 mph - N/A   Unknown
5:55 AM 21.2 °F 6.8 °F 19.4 °F 93% 29.84 in 10.0 mi WNW 17.3 mph - N/A   Unknown
6:15 AM 23.0 °F 9.6 °F 19.4 °F 86% 29.85 in 10.0 mi WNW 16.1 mph 20.7 mph N/A   Unknown
6:35 AM 23.0 °F 10.1 °F 21.2 °F 93% 29.85 in 10.0 mi WNW 15.0 mph - N/A   Unknown
6:55 AM 24.8 °F 10.3 °F 23.0 °F 93% 29.87 in 10.0 mi NW 20.7 mph 27.6 mph N/A   Unknown
7:15 AM 24.8 °F 13.4 °F 23.0 °F 93% 29.88 in 10.0 mi NW 12.7 mph 23.0 mph N/A   Unknown
7:35 AM 24.8 °F 14.0 °F 24.8 °F 100% 29.89 in 10.0 mi WNW 11.5 mph - N/A   Unknown
7:55 AM 24.8 °F 14.0 °F 23.0 °F 93% 29.89 in 10.0 mi WNW 11.5 mph - N/A   Unknown
8:15 AM 23.0 °F 11.1 °F 23.0 °F 100% 29.90 in 10.0 mi West 12.7 mph 17.3 mph N/A   Unknown
8:35 AM 23.0 °F 10.6 °F 23.0 °F 100% 29.90 in 10.0 mi WNW 13.8 mph - N/A   Unknown
8:55 AM 24.8 °F 12.9 °F 23.0 °F 93% 29.91 in 10.0 mi WNW 13.8 mph - N/A   Unknown
9:15 AM 24.8 °F 12.9 °F 23.0 °F 93% 29.91 in 10.0 mi WNW 13.8 mph - N/A   Unknown
9:35 AM 23.0 °F 11.7 °F 19.4 °F 86% 29.92 in 10.0 mi West 11.5 mph - N/A   Unknown
9:55 AM 23.0 °F 12.4 °F 19.4 °F 86% 29.93 in 10.0 mi West 10.4 mph - N/A   Unknown
10:15 AM 23.0 °F 13.9 °F 19.4 °F 86% 29.94 in 10.0 mi WSW 8.1 mph - N/A   Unknown
10:35 AM 23.0 °F 13.1 °F 19.4 °F 86% 29.95 in 10.0 mi WSW 9.2 mph - N/A   Unknown
10:55 AM 24.8 °F 11.9 °F 23.0 °F 93% 29.96 in 10.0 mi West 16.1 mph - N/A   Unknown
11:15 AM 26.6 °F 14.7 °F 24.8 °F 93% 29.96 in 10.0 mi WNW 15.0 mph - N/A   Unknown
11:35 AM 26.6 °F 13.4 °F 24.8 °F 93% 29.96 in 10.0 mi WNW 18.4 mph 23.0 mph N/A   Unknown
11:55 AM 28.4 °F 15.8 °F 24.8 °F 86% 29.95 in 10.0 mi West 18.4 mph 25.3 mph N/A   Unknown
12:15 PM 28.4 °F 17.5 °F 24.8 °F 86% 29.95 in 10.0 mi West 13.8 mph - N/A   Unknown
12:35 PM 30.2 °F 17.8 °F 26.6 °F 86% 29.95 in 10.0 mi West 19.6 mph 25.3 mph N/A   Unknown
12:55 PM 32.0 °F 20.8 °F 28.4 °F 87% 29.95 in 10.0 mi West 17.3 mph - N/A   Unknown
1:15 PM 32.0 °F 21.2 °F 28.4 °F 87% 29.94 in 10.0 mi West 16.1 mph 21.9 mph N/A   Unknown
1:35 PM 32.0 °F 22.5 °F 28.4 °F 87% 29.93 in 10.0 mi West 12.7 mph - N/A   Unknown
1:55 PM 32.0 °F 21.2 °F 28.4 °F 87% 29.93 in 10.0 mi West 16.1 mph - N/A   Unknown
2:15 PM 32.0 °F 20.5 °F 28.4 °F 87% 29.92 in 10.0 mi West 18.4 mph 23.0 mph N/A   Unknown
2:35 PM 32.0 °F 20.1 °F 30.2 °F 93% 29.93 in 10.0 mi West 19.6 mph - N/A   Unknown
2:55 PM 32.0 °F 20.5 °F 28.4 °F 87% 29.94 in 10.0 mi West 18.4 mph 25.3 mph N/A   Unknown
3:15 PM 32.0 °F 22.5 °F 28.4 °F 87% 29.94 in 10.0 mi West 12.7 mph - N/A   Unknown
3:35 PM 32.0 °F 20.8 °F 26.6 °F 80% 29.93 in 10.0 mi West 17.3 mph - N/A   Unknown
3:55 PM 32.0 °F 21.2 °F 26.6 °F 80% 29.94 in 10.0 mi West 16.1 mph - N/A   Unknown
4:15 PM 32.0 °F 21.2 °F 26.6 °F 80% 29.95 in 10.0 mi West 16.1 mph 23.0 mph N/A   Unknown
4:35 PM 32.0 °F 20.1 °F 26.6 °F 80% 29.95 in 9.0 mi West 19.6 mph - N/A Rain Light Rain
4:55 PM 32.0 °F 20.1 °F 28.4 °F 87% 29.95 in 3.0 mi West 19.6 mph 28.8 mph 0.03 in Snow Light Snow
5:15 PM 32.0 °F 19.8 °F 32.0 °F 100% 29.95 in 10.0 mi West 20.7 mph 25.3 mph 0.10 in Snow Light Snow
5:35 PM 32.0 °F 19.2 °F 32.0 °F 100% 29.95 in 10.0 mi West 23.0 mph 32.2 mph 0.11 in Snow Light Snow
5:55 PM 32.0 °F 18.9 °F 32.0 °F 100% 29.96 in 9.0 mi West 24.2 mph 33.4 mph 0.12 in Rain Light Rain
6:15 PM 32.0 °F 19.2 °F 32.0 °F 100% 29.96 in 1.8 mi WNW 23.0 mph 29.9 mph 0.23 in Snow Light Snow
6:35 PM 32.0 °F 19.2 °F 32.0 °F 100% 29.96 in 2.0 mi WNW 23.0 mph 29.9 mph 0.57 in Snow Light Snow
6:55 PM 32.0 °F - 32.0 °F 100% 29.96 in 1.5 mi North - - 1.06 in Snow Light Snow
7:15 PM 32.0 °F 20.8 °F 32.0 °F 100% 29.97 in 2.5 mi West 17.3 mph - 0.19 in Snow Light Snow
7:35 PM 30.2 °F 20.2 °F 30.2 °F 100% 29.97 in 1.0 mi West 12.7 mph - 1.26 in Snow Light Snow
7:55 PM 32.0 °F 22.5 °F 32.0 °F 100% 29.97 in 1.0 mi West 12.7 mph - 3.12 in Snow Light Snow
8:15 PM 32.0 °F 23.0 °F 32.0 °F 100% 29.98 in 1.8 mi WNW 11.5 mph - 0.33 in Snow Light Snow
8:35 PM 32.0 °F 21.6 °F 32.0 °F 100% 29.98 in 1.8 mi WNW 15.0 mph 19.6 mph 0.93 in Snow Light Snow
8:55 PM 32.0 °F 20.8 °F 32.0 °F 100% 29.98 in 1.5 mi WNW 17.3 mph 21.9 mph 2.17 in Snow Light Snow
9:15 PM 32.0 °F 22.1 °F 32.0 °F 100% 29.98 in 9.0 mi WNW 13.8 mph - 0.05 in Snow Light Snow
9:35 PM 32.0 °F 20.5 °F 32.0 °F 100% 29.98 in 10.0 mi WNW 18.4 mph 23.0 mph 0.05 in   Unknown
9:55 PM 32.0 °F 20.1 °F 32.0 °F 100% 29.98 in 10.0 mi WNW 19.6 mph 25.3 mph 0.05 in   Unknown
10:15 PM 30.2 °F 17.8 °F 30.2 °F 100% 29.99 in 10.0 mi WNW 19.6 mph 24.2 mph N/A Rain Light Freezing Rain
10:35 PM 30.2 °F 18.1 °F 30.2 °F 100% 29.99 in 10.0 mi NW 18.4 mph 21.9 mph N/A   Unknown
10:55 PM 30.2 °F 19.3 °F 30.2 °F 100% 30.00 in 10.0 mi NW 15.0 mph 21.9 mph N/A   Unknown
11:15 PM 30.2 °F 19.8 °F 30.2 °F 100% 30.01 in 10.0 mi NW 13.8 mph - N/A   Unknown
11:35 PM 28.4 °F 17.5 °F 28.4 °F 100% 30.02 in 10.0 mi NW 13.8 mph 18.4 mph N/A   Unknown
11:55 PM 28.4 °F 15.8 °F 28.4 °F 100% 30.02 in 10.0 mi NNW 18.4 mph 23.0 mph N/A   Unknown